Location: Les Salelles
(44.4192°N, 4.1044°E)
Time: 16:59:50
(UTC+00:00)

Cosmos 1812 Rocket - Pass Details

Date: 20 January 2021
Orbit: 604 x 633 km, 82.5° (Epoch: 25 February)

Event Time Altitude Azimuth Distance (km) Brightness Sun altitude
Rises 18:43:42 0° 352° (N) 2,911 7.0 -22.4°
Reaches altitude 10° 18:45:58 10° 355° (N) 1,995 6.1 -22.8°
Enters shadow 18:48:56 41° 4° (N) 894 4.2 -23.3°
